GEFSGL_con_cape1000_354.txt.gz
Probability
32 26 32 32 32 29 23 23 19 19 19 19 13 13 13 16 16 10 10 10 10 10 10 6 6 3 3 3 3 3 3 3 3 3 0 0 0 0 0 0 3 3 3
32 32 26 26 23 26 26 23 23 19 16 13 13 13 16 16 13 13 13 13 10 10 10 13 10 10 3 3 3 3 3 3 3 3 3 3 3 0 0 0 0 3 6
26 26 23 19 19 19 26 16 19 16 10 10 10 13 13 16 13 13 13 13 13 13 10 13 13 10 6 3 3 3 3 3 3 3 6 3 3 3 3 0 3 3 3
26 26 19 19 26 23 23 19 19 19 13 13 10 10 10 13 13 13 13 13 16 16 16 16 16 13 13 13 10 10 6 3 3 6 6 3 6 3 3 3 3 6 3
26 23 19 19 19 19 19 23 16 16 16 10 13 13 13 13 13 13 16 16 13 13 16 16 16 16 16 16 16 6 6 6 6 6 6 6 6 3 0 3 3 3 3
23 23 16 19 19 19 13 10 10 10 13 13 16 13 13 13 13 13 13 13 16 16 16 16 16 16 13 3 3 6 6 10 10 6 6 6 6 3 3 3 3 3 3
13 13 13 13 13 13 10 6 6 6 10 16 16 16 10 10 10 3 6 13 16 16 16 16 16 13 13 13 3 3 3 3 6 10 10 10 3 3 6 6 6 3 3
13 13 13 13 10 3 3 3 3 6 6 6 6 6 6 10 10 6 3 6 6 10 10 16 16 16 16 16 13 10 6 6 0 0 6 6 6 6 6 6 10 6 3
13 13 13 13 6 6 3 3 3 3 3 3 6 3 6 6 10 6 0 10 10 10 13 10 13 13 13 6 10 10 10 10 10 0 0 3 0 0 3 3 10 10 6
13 13 13 10 6 6 6 6 3 3 3 3 3 0 3 3 3 3 0 6 10 10 13 13 6 6 6 3 6 10 10 10 6 6 0 0 0 0 0 0 3 6 6
13 10 10 6 6 6 6 6 6 6 6 3 3 0 0 0 0 0 3 3 10 10 10 13 13 6 3 0 3 3 3 3 3 3 3 6 6 6 6 3 0 3 6
10 10 10 6 6 10 6 6 3 3 3 3 3 3 0 0 0 0 3 0 0 3 10 10 10 3 3 3 0 3 3 3 3 3 3 3 6 3 3 6 3 0 6
6 6 3 3 3 3 6 6 3 3 3 3 3 3 3 0 0 0 0 0 0 0 0 3 3 3 3 3 0 3 3 3 3 3 3 3 0 0 0 3 0 0 0
3 3 3 3 3 3 3 3 3 3 3 3 3 3 3 0 0 0 0 0 0 0 3 3 3 3 3 3 3 0 0 0 3 0 0 0 0 0 0 3 3 0 0
0 0 0 3 3 3 3 3 3 3 3 3 3 3 3 3 0 0 0 3 0 0 3 3 3 0 0 0 3 0 0 0 0 0 0 0 0 0 0 0 0 0 0
3 0 0 0 0 0 3 3 0 0 0 0 0 0 0 0 0 0 0 3 0 3 3 3 3 3 0 0 0 0 0 0 0 0 0 0 0 0 0 0 0 0 0
3 3 6 6 6 3 3 0 0 0 0 0 0 0 0 0 0 0 0 0 0 0 3 0 0 0 0 0 0 0 0 0 0 0 0 0 0 0 0 0 0 0 0
0 0 3 6 10 10 10 3 0 0 0 0 0 0 0 0 0 0 0 0 0 0 0 0 0 0 0 0 0 0 0 0 0 0 0 0 0 0 0 0 0 0 0
0 0 0 3 3 6 6 6 6 0 0 0 0 0 0 0 0 0 0 0 0 0 0 0 0 0 0 0 0 0 0 0 0 0 0 0 0 0 0 0 0 0 0
0 0 3 3 3 0 3 6 6 3 6 3 0 0 0 0 0 0 0 0 0 0 0 0 0 0 0 0 0 0 0 0 0 0 0 0 0 0 0 0 0 0 0
6 3 3 3 0 0 0 0 3 10 10 3 3 0 0 0 0 0 0 0 0 0 0 0 0 0 0 0 0 0 0 0 0 0 0 0 0 0 0 0 0 0 0
6 6 3 0 0 0 0 3 0 0 3 3 6 6 0 0 0 0 0 0 0 0 0 0 0 0 0 0 0 0 0 0 0 0 0 0 0 0 0 0 0 0 0
3 3 6 3 0 0 0 0 0 0 0 0 0 0 0 0 0 0 0 0 0 0 0 0 0 0 0 0 0 0 0 0 0 0 0 0 0 0 0 0 0 0 0
3 3 0 0 0 0 0 0 0 3 3 0 0 0 0 0 0 0 0 0 0 0 0 0 0 0 0 0 0 0 0 0 0 0 0 0 0 0 0 0 0 0 0
0 0 0 0 0 0 0 0 3 0 0 0 0 0 0 0 0 0 0 0 0 0 0 0 0 0 0 0 0 0 0 0 0 0 0 0 0 0 0 0 0 0 0
3 3 3 3 3 3 0 0 0 0 0 0 0 0 0 0 0 0 0 0 0 0 0 0 0 0 0 0 0 0 0 0 0 0 0 0 0 0 0 0 0 0 0

GEFSGL_con_cape1000_360.txt.gz
Probability
10 6 6 3 3 3 6 6 10 10 10 10 10 10 10 10 6 10 10 10 10 10 10 6 10 10 6 3 3 3 3 3 3 3 3 3 6 3 3 3 3 3 6
10 6 6 6 6 3 3 6 6 6 3 10 10 10 10 13 6 10 10 13 13 13 13 13 13 10 10 6 3 3 3 3 3 3 6 3 6 6 6 3 3 3 3
6 6 6 6 6 6 6 6 10 6 3 3 6 10 10 10 6 6 6 6 10 10 13 13 13 13 13 13 10 6 3 3 3 3 6 6 10 10 10 6 3 6 3
6 6 6 6 6 10 6 6 3 3 6 10 13 13 13 10 10 10 10 10 6 6 10 10 13 13 13 13 13 13 6 6 6 10 10 10 10 10 10 10 10 6 6
10 10 10 10 6 10 6 10 6 6 6 6 6 13 10 13 13 13 13 13 13 13 13 13 16 13 13 13 13 13 13 13 6 6 6 10 10 10 10 10 10 10 6
10 10 6 6 6 10 10 10 6 6 6 6 6 6 6 6 10 3 6 10 13 13 13 13 13 13 6 6 6 6 13 13 13 10 13 13 13 13 10 6 10 10 10
6 6 6 6 10 10 6 3 3 3 3 6 6 6 6 6 3 3 0 3 6 10 13 13 13 13 13 16 10 0 0 0 3 13 13 13 13 10 10 10 10 10 10
10 6 6 6 10 10 3 3 3 3 3 3 3 3 3 3 0 0 0 0 3 6 3 6 10 13 10 10 16 16 16 10 0 0 10 13 13 10 10 13 13 13 13
10 10 10 10 10 6 3 3 3 3 3 3 3 3 3 3 0 0 0 3 3 3 3 3 6 6 6 3 6 13 16 13 3 0 0 3 0 0 3 10 13 13 6
13 10 10 10 6 6 3 3 3 3 3 3 3 3 3 3 0 0 0 3 3 3 3 3 3 3 3 0 3 6 10 10 10 10 3 0 0 0 0 0 6 6 6
10 10 6 6 6 6 3 0 3 3 3 3 3 3 3 0 0 0 0 0 0 3 3 3 3 0 0 0 0 3 3 3 6 6 6 6 0 0 3 0 0 6 6
10 6 6 6 6 0 0 3 3 3 3 3 3 3 3 0 0 0 0 0 0 0 0 0 0 0 0 0 0 0 0 0 3 3 3 0 0 0 0 6 3 3 3
6 6 6 0 0 0 3 3 3 3 3 3 3 3 3 0 0 0 0 0 0 0 0 0 0 0 0 3 0 0 3 3 3 3 0 0 0 0 0 3 3 3 3
3 3 0 0 0 0 0 0 0 0 0 0 0 0 0 0 0 0 0 0 0 0 0 0 0 0 0 0 0 0 0 0 0 0 0 0 0 0 0 0 0 0 0
0 0 0 0 0 0 0 0 0 0 0 0 0 0 0 0 0 0 0 0 0 0 3 3 3 0 0 3 3 0 0 0 0 0 0 0 0 0 0 0 0 0 0
0 0 0 0 0 0 0 0 0 0 0 0 0 0 0 0 0 0 0 0 0 0 3 3 3 3 0 0 0 0 0 0 0 0 0 0 0 0 0 0 0 0 0
0 0 0 0 0 0 0 0 0 0 0 0 0 0 0 0 0 0 0 0 0 0 3 3 0 0 0 0 0 0 0 0 0 0 0 0 0 0 0 0 0 0 0
0 0 0 0 0 0 0 0 0 0 0 0 0 0 0 0 0 0 0 0 0 0 0 0 0 0 0 0 0 0 0 0 0 0 0 0 0 0 0 0 0 0 0
0 0 0 0 0 0 0 0 0 0 0 0 0 3 0 0 0 0 0 0 0 0 0 0 0 0 0 0 0 0 0 0 0 0 0 0 0 0 0 0 0 0 0
0 0 0 0 0 0 0 0 0 0 0 0 0 0 0 3 0 0 0 0 0 0 0 0 0 0 0 0 0 0 0 0 0 0 0 0 0 0 0 0 0 0 0
0 0 0 0 0 0 0 3 0 0 0 0 3 0 0 0 0 0 0 0 0 0 0 0 0 0 0 0 0 0 0 0 0 0 0 0 0 0 0 0 0 0 0
0 0 0 0 0 0 0 0 0 0 0 0 0 0 0 0 0 0 0 0 0 0 0 0 0 0 0 0 0 0 0 0 0 0 0 0 0 0 0 0 0 0 0
0 0 0 0 0 0 0 0 0 0 0 0 0 0 0 0 0 0 0 0 0 0 0 0 0 0 0 0 0 0 0 0 0 0 0 0 0 0 0 0 0 0 0
0 0 0 0 0 0 0 0 0 0 0 0 0 0 0 0 0 0 0 0 0 0 0 0 0 0 0 0 0 0 0 0 0 0 0 0 0 0 0 0 0 0 0
0 0 0 0 0 0 0 0 0 0 0 0 0 0 0 0 0 0 0 0 0 0 0 0 0 0 0 0 0 0 0 0 0 0 0 0 0 0 0 0 0 0 0
0 0 0 0 0 0 0 3 0 0 0 0 0 0 0 0 0 0 0 0 0 0 0 0 0 0 0 0 0 0 0 0 0 0 0 0 0 0 0 0 0 0 0

GEFSGL_con_cape1000_366.txt.gz
Probability
45 42 42 35 35 35 35 29 39 42 42 39 35 32 32 29 32 32 32 35 35 39 35 29 35 35 32 29 26 19 19 23 19 13 13 19 26 29 26 26 26 23 6
42 45 42 39 32 32 29 29 29 29 29 29 29 26 26 26 26 29 29 26 26 26 26 23 23 19 26 23 23 19 26 26 23 19 23 23 26 23 26 29 23 16 23
29 35 32 32 32 29 23 26 23 23 23 23 19 19 26 26 29 29 29 32 32 29 29 26 23 19 23 23 23 19 23 16 23 23 19 23 19 19 26 26 23 26 16
29 23 35 29 29 23 23 23 23 23 23 19 19 19 19 19 19 19 26 32 32 29 29 26 23 23 23 23 19 23 19 19 19 23 16 23 23 23 19 23 26 26 23
29 23 29 29 26 26 23 23 23 23 19 19 19 19 19 19 19 19 23 26 26 26 23 23 19 19 19 19 16 23 19 19 19 19 19 16 19 23 19 19 16 23 26
29 23 29 26 26 26 23 23 23 19 19 19 19 19 19 16 3 13 23 23 23 19 19 19 16 16 13 3 3 3 13 19 19 19 19 19 19 16 19 16 13 13 13
26 26 23 23 23 19 19 23 19 19 19 19 19 19 19 13 6 0 0 16 19 19 19 19 16 10 13 16 10 3 3 0 6 19 23 23 23 19 19 16 19 13 13
23 19 23 26 26 19 19 16 16 19 19 16 16 16 16 13 3 0 0 10 19 19 16 16 16 13 10 13 16 19 19 16 16 13 19 19 23 23 23 19 16 16 16
19 19 23 23 19 19 19 19 19 19 19 16 16 16 13 13 3 0 0 19 19 16 16 16 16 16 16 10 13 16 19 19 13 6 6 10 6 0 3 16 13 13 13
16 19 19 16 19 16 23 23 19 16 16 16 13 13 13 13 10 0 0 13 16 16 19 13 6 6 6 0 13 16 16 16 16 13 10 6 10 10 0 6 13 13 13
16 19 19 16 16 19 26 26 19 19 19 16 13 13 16 13 13 0 0 10 13 13 10 6 6 3 0 0 0 13 13 6 10 10 13 13 10 10 6 6 6 10 10
19 19 19 19 16 16 23 26 16 16 16 16 16 13 13 13 10 6 0 0 3 10 10 6 6 0 0 0 0 3 3 0 6 3 3 3 3 3 3 6 13 13 16
23 23 23 19 19 16 16 13 16 16 16 13 16 13 10 13 10 3 0 0 0 3 10 3 3 0 0 0 0 0 3 3 3 3 3 3 3 3 0 16 16 19 19
23 23 26 19 16 13 10 10 10 10 6 13 16 16 13 10 10 10 3 0 0 0 0 0 0 0 0 3 0 3 3 6 3 3 6 6 3 3 3 0 0 6 13
26 19 19 16 16 10 6 6 6 6 6 3 3 10 13 13 6 0 3 6 6 6 3 6 10 10 6 6 6 10 10 6 6 6 6 3 6 3 3 3 6 3 3
19 13 13 16 13 10 6 6 3 3 0 0 0 3 3 0 0 0 0 0 0 0 3 6 10 10 6 13 10 10 10 6 10 6 6 6 3 3 3 3 3 3 3
16 10 6 3 3 6 6 3 3 0 0 0 0 0 0 0 0 0 0 0 0 0 0 6 13 13 16 13 6 3 6 3 3 3 6 3 3 3 3 3 3 3 3
13 3 3 6 3 10 10 10 3 6 6 6 0 0 0 0 0 0 0 0 0 0 3 3 6 13 13 6 10 3 0 0 0 0 0 0 0 0 0 0 3 3 3
10 10 3 6 3 3 6 6 3 6 6 6 6 3 0 0 0 0 0 0 0 6 3 6 6 3 6 3 0 0 0 0 0 0 0 0 0 0 0 0 0 0 0
10 3 3 6 3 3 3 6 6 6 6 6 6 3 3 3 3 0 0 0 3 3 3 3 3 3 0 0 0 0 0 0 0 0 0 0 0 0 0 0 0 0 0
10 6 0 3 3 3 3 0 6 10 10 6 6 3 0 3 3 0 0 0 3 3 0 0 0 0 0 0 0 0 0 0 0 0 0 0 0 0 0 0 0 0 0
6 6 3 6 3 3 3 3 3 6 10 6 6 0 0 0 3 3 0 0 0 0 3 3 0 0 0 0 0 0 0 0 0 0 0 0 0 0 0 0 0 0 0
6 6 6 6 3 0 3 3 3 3 3 3 3 3 3 6 0 0 0 0 0 0 0 0 0 0 0 0 0 0 0 0 0 0 0 0 0 0 0 0 0 0 0
6 6 3 3 3 3 0 0 0 0 3 3 6 3 3 3 0 0 0 0 0 0 0 0 0 0 0 0 0 0 0 0 0 0 0 0 0 0 0 0 0 0 0
6 3 3 3 3 0 0 0 0 3 3 3 3 3 3 3 0 0 0 0 0 0 0 0 0 0 0 0 0 0 0 0 0 0 0 0 0 0 0 0 0 0 0
10 3 3 0 0 0 0 0 3 3 3 3 3 3 3 0 0 0 0 0 0 0 0 0 0 0 0 0 0 0 0 0 0 0 0 0 0 0 0 0 0 0 0

GEFSGL_con_cape1000_372.txt.gz
Probability
65 68 61 52 48 48 42 42 35 39 39 32 32 35 32 32 29 32 29 32 32 35 32 29 32 32 32 26 29 26 26 23 23 19 26 29 26 26 16 26 23 16 3
52 55 55 55 48 45 35 35 35 39 29 32 29 26 26 26 26 23 26 26 26 26 26 29 32 29 32 29 29 23 26 26 26 26 26 29 26 26 26 19 16 16 13
48 52 48 45 42 42 39 39 35 35 32 32 29 29 26 23 19 19 19 19 19 19 23 29 29 32 32 26 26 23 19 16 23 26 23 26 26 23 26 16 13 16 13
42 45 42 42 39 39 39 39 39 35 29 29 29 29 26 19 19 19 19 19 19 23 23 23 23 26 29 26 19 19 19 19 23 19 23 23 23 23 23 19 16 16 16
35 39 39 42 42 39 35 39 39 32 23 26 26 26 23 19 19 19 19 19 19 23 23 23 23 19 19 16 16 16 13 19 23 19 19 23 23 19 23 26 23 16 19
42 29 32 32 35 32 29 29 29 29 23 23 23 19 19 19 16 13 19 19 23 26 23 23 16 19 13 6 6 3 10 16 19 19 19 23 19 19 19 13 13 16 16
35 35 32 32 26 26 23 32 32 32 29 26 26 23 16 16 10 3 6 16 16 19 19 23 16 13 13 13 6 0 0 0 0 13 19 23 23 23 19 19 16 16 23
32 35 32 26 29 29 29 29 29 26 29 23 23 19 16 16 10 3 0 10 19 19 19 16 13 13 13 13 13 13 10 10 3 0 3 16 13 19 23 19 23 23 19
23 29 26 26 26 29 29 29 29 29 23 29 23 23 23 13 10 3 0 19 19 16 16 19 13 13 10 10 13 13 13 16 10 3 3 10 10 6 10 19 19 13 10
29 26 26 26 23 26 29 29 26 29 23 19 19 23 26 19 10 3 0 19 16 16 19 13 6 10 10 6 13 13 13 13 13 13 3 3 3 3 0 3 13 10 10
26 26 23 23 26 26 26 26 32 26 23 16 23 23 26 19 13 3 0 13 16 13 13 13 10 0 0 0 0 10 13 10 10 13 13 16 16 13 13 10 13 10 6
26 26 23 26 19 23 29 29 32 26 26 26 29 29 16 23 13 6 3 0 3 13 13 10 6 0 0 0 0 0 0 0 6 10 13 6 10 10 16 19 19 13 16
32 32 26 23 26 29 26 23 23 26 19 19 16 13 13 6 10 6 0 0 0 0 3 0 0 0 0 0 0 0 0 3 3 3 3 3 6 10 16 19 19 16 10
35 29 23 29 29 29 26 19 23 16 16 16 13 13 6 6 6 3 0 0 0 0 0 0 0 0 0 0 0 0 3 6 6 6 6 3 6 6 6 13 13 10 3
32 29 23 26 19 23 16 13 13 13 16 13 10 13 6 6 3 3 3 3 3 0 0 0 0 6 6 6 6 3 10 6 3 3 6 3 3 6 6 3 3 3 0
29 26 23 16 23 16 16 10 10 6 6 0 3 3 3 3 0 0 0 0 3 0 0 3 0 3 3 6 3 3 3 6 3 6 3 3 3 3 0 0 0 0 0
29 23 19 13 16 10 10 10 10 10 0 0 0 0 0 0 0 0 0 0 0 0 0 0 3 3 6 3 3 3 3 3 3 3 3 3 3 3 0 0 0 0 0
32 16 19 19 10 10 10 10 10 10 10 10 0 0 0 0 0 0 0 0 0 0 0 3 3 3 6 6 3 3 3 3 3 3 3 3 3 0 0 0 0 0 0
23 13 13 13 10 10 10 10 10 6 10 10 10 3 0 0 0 0 0 0 0 3 0 0 0 0 0 6 3 3 6 6 6 3 3 3 0 0 0 0 0 0 0
23 6 10 10 10 10 10 10 10 10 6 10 10 6 0 0 0 0 0 0 0 3 6 0 0 0 3 3 6 3 3 3 3 3 0 0 0 0 0 0 0 0 0
10 6 6 6 6 6 6 6 10 10 6 10 10 6 0 3 3 6 3 0 0 0 3 0 3 3 3 6 3 3 3 3 3 0 0 0 0 0 0 0 0 0 0
10 10 6 6 6 6 6 6 6 6 6 6 10 6 0 0 6 6 3 0 0 0 0 3 3 3 3 3 3 3 3 0 0 0 0 0 0 0 0 0 0 0 0
10 10 6 6 6 6 6 6 6 6 6 6 6 10 3 3 3 6 3 3 3 0 0 0 3 3 3 3 3 3 0 0 0 0 0 0 0 0 0 0 0 0 0
6 10 6 6 6 6 6 6 3 6 6 6 3 6 6 6 6 3 3 3 0 0 0 3 3 3 3 0 0 0 0 0 0 0 0 0 0 0 0 0 0 0 0
6 6 6 6 6 6 3 3 6 3 0 0 0 3 6 6 6 3 3 0 0 0 0 0 0 0 0 0 0 0 0 0 0 0 0 0 0 0 0 0 0 0 0
6 6 6 3 3 3 3 6 3 3 0 0 3 3 10 10 3 0 0 0 0 0 0 0 0 0 0 0 0 0 0 0 0 0 0 0 0 0 0 0 0 0 0

GEFSGL_con_cape1000_378.txt.gz
Probability
35 32 29 26 32 29 19 19 19 10 10 10 13 13 13 13 10 6 3 3 6 6 3 3 3 3 3 3 3 3 6 3 0 3 3 3 0 0 0 0 0 0 0
29 29 23 23 16 16 16 19 13 16 13 13 13 16 13 10 10 10 6 6 3 3 3 3 3 3 3 3 3 3 3 3 3 3 3 6 3 3 3 0 0 0 0
26 23 19 13 13 16 16 16 13 13 10 13 13 16 13 16 13 13 10 10 10 10 6 3 3 3 3 3 3 3 3 3 3 3 3 3 3 3 3 3 3 3 3
23 19 16 16 13 16 16 16 16 13 10 10 13 13 13 13 13 13 13 10 10 10 10 6 6 3 3 3 3 3 3 3 3 3 3 3 3 3 3 3 3 3 3
16 16 16 13 13 16 16 16 16 16 13 10 10 6 6 6 16 13 10 13 13 10 6 6 6 6 6 3 6 6 3 3 3 3 3 3 6 3 3 3 3 3 3
10 10 13 13 16 16 16 16 13 13 13 10 6 6 6 3 3 3 3 6 6 6 6 6 6 6 6 3 6 3 3 3 3 0 3 3 3 3 3 3 3 3 3
10 10 10 10 13 13 16 13 13 13 10 10 10 10 10 6 3 3 3 3 3 3 3 3 6 6 6 6 3 3 3 0 0 0 3 3 3 3 3 3 3 3 3
6 10 10 13 13 10 10 6 10 6 6 10 10 10 10 10 3 3 0 0 0 0 0 0 3 0 6 6 6 6 6 3 3 0 0 3 3 3 3 3 3 3 3
10 6 10 10 3 3 6 6 6 6 10 10 10 6 6 6 3 0 0 0 0 0 0 0 0 0 0 0 3 6 6 6 3 3 3 0 3 3 3 3 3 3 3
10 6 3 3 3 3 6 6 6 6 10 10 6 10 10 6 3 0 0 0 0 0 0 0 0 0 0 0 3 3 3 3 3 6 3 3 3 3 3 3 3 3 3
6 3 3 3 3 6 6 6 6 6 6 6 6 3 3 3 3 3 0 0 0 0 0 0 0 0 0 0 0 3 3 3 3 0 3 3 3 3 0 0 0 3 3
3 3 3 3 3 6 6 6 6 6 6 6 3 3 3 3 3 3 0 0 0 0 0 0 0 0 0 0 0 0 0 0 0 0 0 0 3 3 3 0 3 3 0
3 0 3 3 3 3 6 6 6 6 6 3 3 3 3 0 0 3 0 0 0 0 0 0 0 0 0 0 0 0 0 0 0 0 0 3 3 3 3 3 0 0 0
3 3 3 3 3 3 6 6 6 6 3 3 3 3 3 0 0 0 0 0 0 0 0 0 0 0 0 0 0 0 0 0 0 0 0 3 3 3 3 3 3 0 0
3 3 3 3 3 3 3 3 3 6 3 3 6 3 3 0 0 0 0 0 0 0 0 0 0 0 0 0 0 0 0 0 0 0 3 3 3 3 3 0 0 0 0
3 3 3 3 3 3 3 3 3 0 0 0 0 0 0 0 0 0 0 0 0 0 0 0 0 0 0 0 0 0 0 0 0 0 0 3 3 3 3 0 0 0 0
0 6 3 3 3 3 3 3 3 3 0 0 0 0 0 0 0 0 0 0 0 0 0 0 0 0 0 0 0 0 0 0 0 3 3 3 3 3 0 0 0 0 0
3 6 3 3 3 3 3 3 0 0 0 0 0 0 0 0 0 0 0 0 0 0 0 0 0 0 0 0 0 0 0 0 3 3 3 3 3 0 0 0 0 0 0
6 10 3 3 3 3 3 3 3 0 0 0 3 0 0 0 0 0 0 0 0 0 0 0 0 0 0 0 0 0 0 0 3 3 3 3 3 0 0 0 0 0 0
6 6 6 6 3 3 3 3 0 0 0 0 3 3 0 0 0 0 0 0 0 0 0 0 0 0 0 0 0 0 0 0 3 3 3 3 3 0 0 0 0 0 0
10 6 3 6 6 6 6 6 3 0 0 0 3 3 0 0 0 0 0 0 0 0 0 0 0 0 0 0 0 0 0 0 3 3 3 3 3 0 0 0 0 0 0
10 6 6 6 6 6 6 6 6 3 0 3 3 3 0 0 0 0 0 0 0 0 0 0 0 0 0 0 0 0 0 0 0 3 3 3 0 0 0 0 0 0 0
10 6 6 6 6 6 6 6 6 6 6 3 3 3 0 0 0 0 0 0 0 0 0 0 0 0 0 0 0 0 0 0 0 3 3 0 0 0 0 0 0 0 0
10 6 6 6 6 6 6 6 3 3 3 3 3 0 0 0 0 0 0 0 0 0 0 0 0 0 0 0 0 0 0 0 0 3 0 0 0 0 0 0 0 0 0
6 6 6 6 6 6 6 3 3 3 3 3 3 3 0 0 0 0 0 0 0 0 0 0 0 0 0 0 0 0 0 0 0 0 0 0 0 0 0 0 0 0 0
3 3 6 3 3 3 3 3 3 3 3 3 0 0 0 0 0 0 0 0 0 0 0 0 0 0 0 0 0 0 0 0 0 0 0 0 0 0 0 0 0 0 0